Weather Service Report


592 
ASUS45 KPSR 301310
RWRAZ 

ARIZONA REGIONAL HOURLY WEATHER ROUNDUP
NATIONAL WEATHER SERVICE PHOENIX AZ
600 AM MST TUE SEP 30 2014

NOTE: FAIR INDICATES FEW OR NO CLOUDS BELOW 12,000 FEET WITH NO
SIGNIFICANT WEATHER AND/OR OBSTRUCTIONS TO VISIBILITY.

AZZ001>003-036-301400-
NORTHWEST ARIZONA

CITY           SKY/WX    TMP DP  RH WIND       PRES   REMARKS
BULLHEAD CITY  CLEAR     66  37  34 NE3       29.86R
KINGMAN        NOT AVBL
$$

AZZ004>008-015-016-018-301400-
NORTH CENTRAL ARIZONA

CITY           SKY/WX    TMP DP  RH WIND       PRES   REMARKS
GRAND CANYON   CLEAR     32  31  96 CALM      30.11S
PRESCOTT       CLEAR     45  36  70 S7        30.05S
FLAGSTAFF      CLEAR     32  30  92 CALM      30.12S
PAYSON         CLEAR     48  37  66 CALM      30.05S
$$

AZZ009>014-017-301400-
NORTHEAST ARIZONA

CITY           SKY/WX    TMP DP  RH WIND       PRES   REMARKS
WINSLOW        CLEAR     44  41  89 SE5       30.05S
SAINT JOHNS    CLEAR     44  35  70 S6        30.07R
WINDOW ROCK    CLEAR     35  32  88 CALM      30.11
SHOW LOW       CLEAR     37  32  81 S3        30.12S
$$

AZZ023-301400-
GREATER PHOENIX AREA

CITY           SKY/WX    TMP DP  RH WIND       PRES   REMARKS
PHOENIX        CLEAR     68  52  56 E6        29.84S
BUCKEYE          N/A     57  50  77 CALM      29.86R
GLENDALE       CLEAR     63  52  67 N3        29.87
LUKE AFB       CLEAR     61  51  69 N5        29.85R
DEER VALLEY    CLEAR     61  52  72 CALM      29.86R
SCOTTSDALE     CLEAR     64  54  69 CALM      29.87R
MESA-FALCON    CLEAR     63  48  59 N8        29.85
MESA-GATEWAY   CLEAR     61  54  77 E6        29.88S
CHANDLER       CLEAR     61  55  82 E5        29.86
$$

AZZ027-028-301400-
SOUTHWEST MARICOPA COUNTY AND PINAL COUNTY

CITY           SKY/WX    TMP DP  RH WIND       PRES   REMARKS
CASA GRANDE    CLEAR     57  46  67 CALM      29.87S
$$

AZZ503-504-507>509-301400-
SOUTHEAST ARIZONA

CITY           SKY/WX    TMP DP  RH WIND       PRES   REMARKS
TUCSON         CLEAR     59  43  55 SE9       29.94S
DAVIS-MONTHAN  CLEAR     58  44  58 SE6       29.93R
RYAN FIELD       N/A     55  39  54 CALM      29.93
NOGALES        CLEAR     52  48  86 SE3       29.99S
SIERRA VISTA   PTCLDY    57  52  82 CALM      30.03S
DOUGLAS        CLEAR     53  49  86 N5        30.00S
SAFFORD        CLEAR     52  37  56 CALM      29.94R
$$

AZZ020-021-025-026-031-301400-
SOUTHWEST ARIZONA

CITY           SKY/WX    TMP DP  RH WIND       PRES   REMARKS
YUMA           CLEAR     69  46  43 CALM      29.80S
$$

CAZ031-033-041-043-047-048-061-301400-
SOUTHERN CALIFORNIA

CITY           SKY/WX    TMP DP  RH WIND       PRES   REMARKS
DOWNTOWN L.A.  CLEAR     64  56  75 CALM      29.86R
L.A. AIRPORT   CLEAR     62  57  83 E5        29.86R
SAN DIEGO      CLEAR     65  57  75 CALM      29.86S
BURBANK        CLEAR     60  46  59 CALM      29.86R
ONTARIO        CLEAR     63  54  72 NE3       29.87S
RIVERSIDE      CLEAR     61  54  77 NE5       29.87S
PALM SPRINGS   CLEAR     72  43  35 N9        29.85S
EL CENTRO NAS  CLEAR     66  37  34 W7        29.80R
IMPERIAL       CLEAR     64  42  44 W6        29.80R
BLYTHE         CLEAR     64  47  53 CALM      29.82S
NEEDLES        CLEAR     67  39  35 SW6       29.85S
$$

NVZ020-UTZ003-301400-
SOUTHERN NEVADA-UTAH

CITY           SKY/WX    TMP DP  RH WIND       PRES   REMARKS
LAS VEGAS      CLEAR     66  38  35 S9        29.88S
SALT LAKE CITY CLOUDY    53  49  86 E7        29.96F
$$

NMZ009-TXZ055-301400-
NEW MEXICO-WEST TEXAS

CITY           SKY/WX    TMP DP  RH WIND       PRES   REMARKS
ALBUQUERQUE    CLEAR     50  35  56 CALM      30.06R
EL PASO        PTCLDY    66  54  65 S7        29.96R
$$


........................KEY........................
SKY/WX - SKY CONDITION/WEATHER
TMP    - TEMPERATURE IN FAHRENHEIT
DP     - DEW POINT IN FAHRENHEIT
RH     - RELATIVE HUMIDITY IN PERCENT
WIND   - DIRECTION AND SPEED IN MILES PER HOUR (MPH)
VRB    - VARIABLE WIND DIRECTION
PRES   - MEAN SEA LEVEL PRESSURE IN INCHES OF MERCURY
         F - FALLING PRESSURE   R - RISING PRESSURE
         S - STEADY PRESSURE
VSB    - VISIBILITY IN MILES
HX     - HEAT INDEX IN FAHRENHEIT
WCI    - WIND CHILL INDEX IN FAHRENHEIT
TC     - TEMPERATURE IN CELSIUS WHICH IS ALSO KNOWN AS
         TEMPERATURE IN CENTIGRADE
AFB    - AIR FORCE BASE
         LUKE AFB IS LUKE AIR FORCE BASE
         DAVIS-MONTHAN IS DAVIS-MONTHAN AIR FORCE BASE
NAS    - NAVAL AIR STATION
         EL CENTRO NAS IS EL CENTRO NAVAL AIR STATION
N/A    - NOT AVAILABLE

Return to Home page


Western Regional Climate Center, wrcc@dri.edu